[[{"header":{"parameterUnit":"m.s-1","parameterCategory":1,"la1":30.2991,"la2":30.254,"lo1":-89.0895,"lo2":-89.0444,"dy":0.0017,"dx":0.0017,"nx":28,"ny":28,"refTime":"2025-09-12T03:00:00:Z","depth":0,"parameterNumber":2,"parameterNumberName":"U-component_of_WINDS"},"data":[0,0,0,0,0,0,0,0,0,0,0,0,0,0,0,0,0,0,0,0,0,0,0,0,0,0,0,0,0,0,0,0,0,0,0,0,0,0,0,0,0,0,0,0,0,0,0,0,0,0,0,0,0,0,0,0,0,0,0.8182,0.8183,0,0.8335,0.8336,0.8338,0.8363,0.8361,0.836,0.8359,0.852,0.8525,0.8531,0,0,0,0,0,0,0,0,0,0,0,0,0,0.7914,0.7919,0.8182,0.8184,0.8186,0.8334,0.8337,0.8339,0.8363,0.8361,0.836,0.8358,0.8518,0.8525,0.8531,0,0,0,0,0,0,0,0,0,0,0,0,0,0.8045,0.7921,0.8181,0.8215,0.822,0.8334,0.8337,0.8339,0.8363,0.8361,0.8359,0.8357,0.8516,0.8524,0.8532,0.8624,0,0,0.8558,0.8561,0,0,0,0,0,0,0,0,0.8038,0.8055,0.8209,0.8213,0.8219,0.8327,0.8301,0.8435,0.8364,0.8309,0.8359,0.8356,0.8458,0.8471,0.8504,0.8632,0.8639,0.8559,0.8564,0.8567,0.8569,0,0,0,0,0,0,0,0.8029,0.8049,0.8242,0.8211,0.8217,0.8224,0.8241,0.8327,0.8393,0.8314,0.8316,0.8333,0.846,0.8496,0.8508,0.8641,0.8558,0.8566,0.8571,0.8574,0.8851,0.8853,0,0,0,0,0,0,0.8013,0.8041,0.8238,0.8247,0.8121,0.8231,0.8249,0.8295,0.8392,0.8405,0.8335,0.8334,0.8483,0.8498,0.8514,0.8627,0.8567,0.8575,0.858,0.8848,0.8851,0.8854,0,0,0,0,0,0,0.8007,0.803,0.8231,0.8145,0.8171,0.8237,0.8289,0.8299,0.8334,0.8408,0.8421,0.8359,0.8482,0.8502,0.8596,0.8633,0.8579,0.8586,0.8846,0.8849,0.8853,0.8854,0,0,0,0,0,0,0.7999,0.8028,0.8063,0.8145,0.8175,0.831,0.8291,0.8303,0.8348,0.8348,0.8434,0.8446,0.8482,0.8583,0.8604,0.8643,0.8593,0.8843,0.8847,0.8851,0.8851,0.8857,0.8863,0,0,0,0,0,0.799,0.8059,0.8064,0.8088,0.822,0.8312,0.8329,0.8367,0.8351,0.8387,0.8434,0.8444,0.8625,0.8593,0.8617,0.8659,0.8841,0.8846,0.8851,0.8849,0.8856,0.8863,0,0,0,0,0,0,0.7981,0.807,0.8078,0.8175,0.8235,0.8316,0.8363,0.8374,0.8442,0.844,0.8485,0.8504,0.8596,0.8637,0.8599,0.8752,0.8732,0.8742,0.8722,0.873,0.8735,0.8723,0.86,0,0,0,0,0,0.799,0.8056,0.8131,0.821,0.8239,0.8295,0.8337,0.8361,0.8426,0.8452,0.8506,0.857,0.8642,0.8688,0.8758,0.8857,0.8876,0.8898,0.8904,0.8908,0.8916,0.8971,0.8981,0.8871,0.8871,0.8871,0,0,0.801,0.8067,0.8106,0.8209,0.8259,0.8327,0.8317,0.839,0.8441,0.8464,0.8555,0.8597,0.8672,0.8768,0.8813,0.8805,0.8951,0.8915,0.8918,0.8924,0.8977,0.8987,0.8996,0.8875,0.8874,0.8874,0,0,0.8081,0.8131,0.8201,0.8251,0.8325,0.8362,0.8379,0.8457,0.8485,0.8577,0.8595,0.8657,0.878,0.8831,0.8874,0.8963,0.8974,0.8985,0.9014,0.9067,0.9075,0.9083,0.9114,0.9125,0.8993,0.8993,0.8993,0,0.8097,0.8199,0.8236,0.8308,0.8352,0.8374,0.8446,0.8493,0.8587,0.8618,0.8607,0.8759,0.8812,0.892,0.8941,0.8975,0.8996,0.8975,0.9071,0.9079,0.9087,0.9117,0.9128,0.8993,0.8993,0.8993,0.8993,0,0.8214,0.8285,0.8333,0.8421,0.8471,0.8543,0.8591,0.8638,0.8657,0.8695,0.8788,0.885,0.8933,0.896,0.8981,0.9071,0.9064,0.9061,0.9042,0.9098,0.9126,0.9138,0.8994,0.8994,0.8994,0.8994,0,0,0.8285,0.8391,0.8408,0.8448,0.8531,0.8587,0.8659,0.8738,0.8776,0.8841,0.8902,0.9004,0.9002,0.905,0.9077,0.9123,0.9187,0.9115,0.9117,0.9125,0.929,0.929,0.9303,0.9195,0.9197,0.9199,0.9283,0,0.8365,0.8493,0.8528,0.8636,0.8701,0.8723,0.8786,0.8844,0.8881,0.8943,0.8985,0.9055,0.9048,0.9077,0.9123,0.9169,0.9221,0.9164,0.9253,0.9256,0.9233,0.9318,0.9319,0.9395,0.9295,0.9297,0.9298,0,0.8476,0.8539,0.8654,0.8727,0.8756,0.8811,0.8885,0.8944,0.901,0.9034,0.9087,0.9109,0.9185,0.9161,0.9267,0.9228,0.9266,0.9295,0.9299,0.9308,0.928,0.9329,0.9421,0.9431,0.9316,0.9315,0.9314,0,0.8514,0.8629,0.8712,0.8745,0.8833,0.8872,0.891,0.8975,0.9019,0.9084,0.9114,0.9188,0.9228,0.9285,0.9327,0.9306,0.9429,0.9409,0.9451,0.945,0.9476,0.9473,0.9574,0.9502,0.9502,0.9501,0.9501,0,0.8599,0.8668,0.873,0.8781,0.8858,0.8898,0.8975,0.9014,0.9071,0.9131,0.9154,0.921,0.9261,0.9324,0.9357,0.9439,0.9458,0.9479,0.9487,0.9477,0.9474,0.9502,0.9498,0.9504,0.9504,0.9503,0.9503,0,0.8655,0.8699,0.8791,0.8866,0.8886,0.894,0.9005,0.9055,0.9093,0.9167,0.9188,0.9247,0.9322,0.9368,0.9464,0.9486,0.9576,0.9583,0.9553,0.9556,0.9595,0.959,0.9717,0.9735,0.9651,0.9652,0.9653,0,0.8706,0.8759,0.8839,0.888,0.8918,0.8984,0.9028,0.907,0.9116,0.9195,0.9236,0.9312,0.9374,0.9493,0.9545,0.9618,0.9626,0.9665,0.9637,0.9624,0.9625,0.9621,0.9626,0.967,0.967,0.9671,0.9671,0,0.8791,0.881,0.8873,0.8944,0.8996,0.9054,0.9112,0.9144,0.9196,0.9246,0.9322,0.937,0.9466,0.9541,0.9618,0.9659,0.9674,0.968,0.9693,0.9683,0.9662,0.9673,0.9564,0.9677,0.9676,0.9676,0.9675,0.9675,0.8846,0.8893,0.8956,0.9026,0.9073,0.9126,0.9177,0.922,0.9283,0.9363,0.9384,0.9463,0.9528,0.9633,0.9675,0.9738,0.9732,0.9752,0.9757,0.9761,0.9761,0.9653,0.9752,0.9752,0.9752,0.9752,0.9752,0,0.8931,0.8973,0.9036,0.9115,0.9169,0.9177,0.9241,0.9286,0.9354,0.9413,0.9473,0.956,0.9632,0.9689,0.9763,0.9803,0.9811,0.9821,0.9818,0.9827,0.9762,0.9742,0.9812,0.9812,0.9812,0.9812,0.9812,0.9812,0.8982,0.9062,0.9089,0.9193,0.9234,0.931,0.9346,0.9395,0.9441,0.9536,0.9595,0.9632,0.969,0.9768,0.9835,0.985,0.9876,0.9884,0.99,0.9838,0.9832,0.9825,0.9807,0.9889,0.9889,0.9959,0.996,0.996]},{"header":{"parameterUnit":"m.s-1","parameterCategory":1,"la1":30.2991,"la2":30.254,"lo1":-89.0895,"lo2":-89.0444,"dy":0.0017,"dx":0.0017,"nx":28,"ny":28,"refTime":"2025-09-12T03:00:00:Z","depth":0,"parameterNumber":3,"parameterNumberName":"V-component_of_WINDS"},"data":[0,0,0,0,0,0,0,0,0,0,0,0,0,0,0,0,0,0,0,0,0,0,0,0,0,0,0,0,0,0,0,0,0,0,0,0,0,0,0,0,0,0,0,0,0,0,0,0,0,0,0,0,0,0,0,0,0,0,0.4459,0.4458,0,0.4393,0.4392,0.4391,0.4315,0.4314,0.4312,0.4311,0.4246,0.4246,0.4245,0,0,0,0,0,0,0,0,0,0,0,0,0,0.452,0.4519,0.4459,0.4458,0.4457,0.4393,0.4392,0.4391,0.4315,0.4313,0.4312,0.4311,0.4247,0.4246,0.4245,0,0,0,0,0,0,0,0,0,0,0,0,0,0.4478,0.4519,0.4459,0.4412,0.4407,0.4393,0.4392,0.4391,0.4315,0.4313,0.4312,0.431,0.4247,0.4246,0.4245,0.4274,0,0,0.4242,0.4242,0,0,0,0,0,0,0,0,0.448,0.4476,0.4419,0.4415,0.4409,0.436,0.439,0.4352,0.4316,0.435,0.4311,0.4309,0.4286,0.4282,0.4273,0.4271,0.4268,0.4242,0.4241,0.4241,0.4241,0,0,0,0,0,0,0,0.4483,0.4478,0.4433,0.4419,0.4412,0.4394,0.4386,0.4382,0.4329,0.4347,0.4341,0.4334,0.4283,0.4274,0.4271,0.4267,0.4242,0.4241,0.4241,0.424,0.4282,0.4283,0,0,0,0,0,0,0.4493,0.4481,0.4435,0.4431,0.4441,0.4394,0.4385,0.4378,0.4328,0.4319,0.4336,0.4331,0.4277,0.4272,0.4268,0.4297,0.4241,0.424,0.4239,0.428,0.4282,0.4284,0,0,0,0,0,0,0.4495,0.449,0.4438,0.4454,0.4446,0.4395,0.4387,0.4377,0.4369,0.432,0.431,0.4337,0.4275,0.427,0.4272,0.4294,0.424,0.4239,0.4278,0.4281,0.4283,0.4356,0,0,0,0,0,0,0.4497,0.4491,0.4502,0.4455,0.4446,0.4443,0.4388,0.4377,0.4367,0.436,0.4318,0.431,0.4273,0.4274,0.4271,0.4291,0.4238,0.4276,0.4279,0.4282,0.4351,0.436,0.4368,0,0,0,0,0,0.4499,0.4526,0.4503,0.4497,0.4458,0.4444,0.4439,0.4396,0.4369,0.4379,0.4347,0.4311,0.4292,0.4275,0.4271,0.4291,0.4274,0.4278,0.4282,0.4347,0.4358,0.4368,0,0,0,0,0,0,0.4579,0.4519,0.4493,0.4505,0.448,0.4431,0.4443,0.4409,0.4392,0.4387,0.4334,0.4325,0.4334,0.4313,0.4295,0.4315,0.4278,0.4281,0.4328,0.4339,0.4347,0.4352,0.4237,0,0,0,0,0,0.4597,0.4591,0.4539,0.4555,0.4544,0.4496,0.4488,0.4456,0.4429,0.4418,0.4387,0.4362,0.4349,0.4343,0.4329,0.4347,0.4336,0.4359,0.4368,0.4375,0.4378,0.4383,0.4392,0.4296,0.4296,0.4296,0,0,0.4636,0.4603,0.4602,0.457,0.4547,0.4541,0.4487,0.4484,0.4479,0.4418,0.4418,0.4393,0.4362,0.4371,0.4374,0.4354,0.4402,0.438,0.4386,0.4385,0.4388,0.4397,0.4405,0.4299,0.4298,0.4298,0,0,0.4704,0.4679,0.4688,0.4665,0.4629,0.4597,0.4599,0.4554,0.4535,0.4534,0.4487,0.448,0.4461,0.4439,0.4426,0.4481,0.4447,0.4479,0.4524,0.4529,0.4537,0.4543,0.4561,0.4569,0.4482,0.4482,0.4482,0,0.4757,0.4746,0.4697,0.4695,0.4682,0.4624,0.4632,0.4613,0.4576,0.4568,0.4545,0.4517,0.4493,0.4495,0.4508,0.45,0.4499,0.4484,0.4539,0.4545,0.4551,0.4567,0.4575,0.4486,0.4486,0.4485,0.4485,0,0.4812,0.4805,0.4816,0.4779,0.4767,0.4771,0.4722,0.4715,0.4684,0.4653,0.4651,0.4618,0.4595,0.4593,0.4564,0.4591,0.4579,0.4549,0.451,0.4565,0.4579,0.4585,0.4492,0.4491,0.4489,0.4488,0,0,0.4931,0.4864,0.4869,0.485,0.4805,0.4798,0.4798,0.4774,0.4769,0.4745,0.4742,0.4726,0.4696,0.4681,0.4648,0.4653,0.4696,0.4622,0.462,0.4636,0.4722,0.4744,0.4753,0.4673,0.4674,0.4675,0.4724,0,0.499,0.4985,0.4939,0.4948,0.4939,0.4883,0.4882,0.4855,0.4825,0.4813,0.4781,0.4769,0.4732,0.4722,0.4724,0.4691,0.4713,0.4687,0.467,0.467,0.4679,0.476,0.4785,0.4833,0.4729,0.473,0.4731,0,0.5059,0.5035,0.5043,0.4994,0.4989,0.499,0.4962,0.4952,0.4919,0.4897,0.4878,0.484,0.4835,0.4798,0.4791,0.4774,0.4764,0.4746,0.4747,0.4744,0.4704,0.4759,0.4847,0.4855,0.474,0.4739,0.4739,0,0.5142,0.5113,0.5113,0.5099,0.5043,0.5044,0.5021,0.4986,0.4973,0.495,0.494,0.4917,0.4905,0.4887,0.4843,0.482,0.4839,0.48,0.482,0.4822,0.4828,0.4828,0.4915,0.4822,0.4822,0.4822,0.4822,0,0.5213,0.5219,0.5149,0.5149,0.5154,0.51,0.5107,0.5078,0.5046,0.5039,0.4989,0.4984,0.4926,0.4913,0.4879,0.4876,0.4871,0.4853,0.4844,0.4857,0.4859,0.485,0.4846,0.4824,0.4824,0.4823,0.4823,0,0.5308,0.5261,0.5257,0.5203,0.5189,0.5195,0.5149,0.5147,0.5113,0.5104,0.5099,0.5046,0.5028,0.4982,0.4953,0.4929,0.4937,0.492,0.4948,0.4942,0.4965,0.4963,0.5049,0.5057,0.496,0.4961,0.4962,0,0.5356,0.5359,0.5304,0.5295,0.5274,0.526,0.5246,0.5193,0.5181,0.514,0.5142,0.512,0.51,0.5074,0.5033,0.501,0.4991,0.5023,0.4988,0.5,0.499,0.499,0.499,0.5031,0.5032,0.5033,0.5034,0,0.5445,0.5421,0.5403,0.5375,0.5359,0.5336,0.5309,0.5305,0.5245,0.5233,0.5213,0.5197,0.5165,0.5144,0.5113,0.5089,0.5052,0.5045,0.5049,0.5063,0.5078,0.5069,0.4968,0.5044,0.5043,0.5042,0.5042,0.5041,0.5517,0.5516,0.5477,0.5457,0.5431,0.5406,0.54,0.5364,0.5347,0.5316,0.5285,0.5269,0.5232,0.5187,0.5165,0.515,0.5131,0.5136,0.5138,0.514,0.5145,0.508,0.5145,0.5144,0.5144,0.5144,0.5143,0,0.5603,0.5574,0.5557,0.5519,0.5503,0.5467,0.5435,0.5424,0.5409,0.5378,0.5358,0.5334,0.5311,0.5267,0.5241,0.5237,0.5219,0.5232,0.5232,0.5226,0.5165,0.5164,0.5247,0.5247,0.5247,0.5247,0.5247,0.5247,0.5646,0.5642,0.5613,0.5594,0.5565,0.5547,0.5531,0.5507,0.5482,0.5457,0.5437,0.5408,0.5371,0.534,0.5318,0.5305,0.5297,0.5316,0.5298,0.5241,0.5231,0.5222,0.5221,0.5315,0.5315,0.536,0.5361,0.5361]}]]